EW3173 Weather Reports


Display with metric or nautical units.
time (UTC)temp
F
wind
direction
speed
MPH
gust
MPH
rain 1hr
in
rain 24hr
in
rain mn
in
humidity
%
barometer
mb
20230206154303 41 264 6.0 17.0 0.00 0.00 0.00 34 1029.0
20230206153804 41 259 6.0 17.0 0.00 0.00 0.00 35 1028.8
20230206153305 41 270 4.0 14.0 0.00 0.00 0.00 36 1028.7
20230206151804 38 274 3.0 13.0 0.00 0.00 0.00 42 1028.1
20230206151304 36 266 5.0 13.0 0.00 0.00 0.00 49 1028.2
20230206150804 34 286 6.0 13.0 0.00 0.00 0.00 59 1028.2
20230206150304 33 247 0.0 2.0 0.00 0.00 0.00 66 1028.2
20230206144804 33 247 0.0 2.0 0.00 0.00 0.00 67 1027.8
20230206144305 33 247 0.0 1.0 0.00 0.00 0.00 66 1027.7
20230206143803 33 247 0.0 1.0 0.00 0.00 0.00 66 1027.6
20230206143304 33 247 0.0 2.0 0.00 0.00 0.00 66 1027.5
20230206141804 33 247 0.0 1.0 0.00 0.00 0.00 66 1027.2
20230206141304 33 247 0.0 2.0 0.00 0.00 0.00 66 1027.2
20230206140804 33 247 1.0 2.0 0.00 0.00 0.00 65 1027.2
20230206140303 33 247 1.0 2.0 0.00 0.00 0.00 65 1027.1
20230206134804 33 247 0.0 2.0 0.00 0.00 0.00 65 1027.2
20230206134304 33 247 0.0 2.0 0.00 0.00 0.00 65 1027.2
20230206133803 33 247 1.0 2.0 0.00 0.00 0.00 65 1027.1
20230206133303 33 247 1.0 3.0 0.00 0.00 0.00 65 1026.9
20230206131304 33 74 1.0 2.0 0.00 0.00 0.00 63 1026.5
20230206130804 34 74 1.0 2.0 0.00 0.00 0.00 63 1026.4
20230206130303 34 74 1.0 2.0 0.00 0.00 0.00 63 1026.4
20230206124804 34 74 1.0 2.0 0.00 0.00 0.00 62 1026.2
20230206124303 34 74 1.0 3.0 0.00 0.00 0.00 62 1026.0
20230206123804 34 74 1.0 3.0 0.00 0.00 0.00 62 1026.0
20230206123304 35 74 2.0 3.0 0.00 0.00 0.00 62 1026.0
20230206121305 35 69 1.0 6.0 0.00 0.00 0.00 60 1026.1
20230206120804 36 69 1.0 6.0 0.00 0.00 0.00 60 1026.1
20230206120303 36 45 2.0 7.0 0.00 0.00 0.00 60 1026.0
20230206114804 37 87 2.0 3.0 0.00 0.00 0.00 58 1025.7
20230206114304 37 57 0.0 3.0 0.00 0.00 0.00 58 1025.7
20230206113803 37 57 1.0 9.0 0.00 0.00 0.00 58 1025.7
20230206111804 38 33 2.0 12.0 0.00 0.00 0.00 57 1025.6
20230206111304 39 296 2.0 12.0 0.00 0.00 0.00 57 1025.6
20230206110804 39 22 6.0 12.0 0.00 0.00 0.00 57 1025.3
20230206110304 39 34 3.0 8.0 0.00 0.00 0.00 58 1025.1
20230206103804 36 254 5.0 10.0 0.00 0.00 0.00 62 1024.8
20230206103303 34 281 2.0 8.0 0.00 0.00 0.00 57 1024.9
20230206101804 35 237 1.0 2.0 0.00 0.00 0.00 55 1024.5
20230206101304 35 237 1.0 2.0 0.00 0.00 0.00 55 1024.2
20230206100805 36 237 0.0 2.0 0.00 0.00 0.00 54 1024.2
20230206100303 36 237 1.0 2.0 0.00 0.00 0.00 54 1024.2
20230206094804 37 237 0.0 2.0 0.00 0.00 0.00 55 1024.0
20230206094304 38 237 1.0 2.0 0.00 0.00 0.00 55 1024.0
20230206093304 39 237 1.0 2.0 0.00 0.00 0.00 55 1024.1
20230206091804 39 199 1.0 5.0 0.00 0.00 0.00 55 1024.4
20230206091304 39 289 2.0 5.0 0.00 0.00 0.00 55 1024.4
20230206084804 40 250 1.0 3.0 0.00 0.00 0.00 55 1024.7
20230206084304 40 250 1.0 6.0 0.00 0.00 0.00 55 1024.7
20230206083804 40 246 2.0 8.0 0.00 0.00 0.00 55 1024.8
20230206083304 40 262 3.0 8.0 0.00 0.00 0.00 56 1024.7
20230206081804 39 242 2.0 6.0 0.00 0.00 0.00 57 1024.9
20230206081304 39 298 3.0 7.0 0.00 0.00 0.00 57 1025.1
20230206080803 39 28 2.0 7.0 0.00 0.00 0.00 58 1025.1
20230206080303 39 297 2.0 3.0 0.00 0.00 0.00 58 1025.4
20230206074803 39 316 3.0 8.0 0.00 0.00 0.00 59 1025.6
20230206074304 38 314 3.0 5.0 0.00 0.00 0.00 60 1025.8
20230206073803 37 298 3.0 6.0 0.00 0.00 0.00 61 1025.8
20230206073304 37 274 2.0 7.0 0.00 0.00 0.00 62 1025.9
20230206071804 33 292 3.0 8.0 0.00 0.00 0.00 67 1026.2
20230206071303 32 307 2.0 8.0 0.00 0.00 0.00 68 1026.4
20230206064803 30 322 0.0 6.0 0.00 0.00 0.00 74 1026.8
20230206064304 29 287 2.0 6.0 0.00 0.00 0.00 76 1026.8
20230206063804 29 303 0.0 2.0 0.00 0.00 0.00 75 1026.8
20230206061804 28 248 1.0 2.0 0.00 0.00 0.00 73 1026.9
20230206060803 29 236 1.0 2.0 0.00 0.00 0.00 73 1026.7
20230206054804 29 236 1.0 2.0 0.00 0.00 0.00 73 1026.5
20230206054304 29 234 1.0 2.0 0.00 0.00 0.00 72 1026.7
20230206053804 29 234 1.0 2.0 0.00 0.00 0.00 72 1026.8
20230206053304 29 234 0.0 2.0 0.00 0.00 0.00 72 1027.0
20230206051804 29 234 1.0 2.0 0.00 0.00 0.00 71 1027.1
20230206051304 29 234 1.0 3.0 0.00 0.00 0.00 71 1027.2
20230206050804 29 234 1.0 3.0 0.00 0.00 0.00 70 1027.3
20230206044805 29 322 1.0 2.0 0.00 0.00 0.00 69 1027.3
20230206041803 30 322 0.0 1.0 0.00 0.00 0.00 68 1027.3
20230206041305 30 322 0.0 1.0 0.00 0.00 0.00 68 1027.3
20230206040304 30 322 0.0 2.0 0.00 0.00 0.00 67 1027.3
20230206034804 31 322 0.0 1.0 0.00 0.00 0.00 67 1027.3
20230206034304 31 322 0.0 2.0 0.00 0.00 0.00 67 1027.3
20230206033804 31 322 1.0 2.0 0.00 0.00 0.00 67 1027.3
20230206033304 31 322 0.0 1.0 0.00 0.00 0.00 66 1027.4
20230206031804 32 322 0.0 2.0 0.00 0.00 0.00 66 1027.5
20230206031304 32 322 0.0 2.0 0.00 0.00 0.00 66 1027.6
20230206030804 32 322 0.0 2.0 0.00 0.00 0.00 66 1027.5
20230206030304 33 322 1.0 2.0 0.00 0.00 0.00 66 1027.7
20230206024804 33 322 0.0 2.0 0.00 0.00 0.00 65 1027.9
20230206024304 33 322 0.0 2.0 0.00 0.00 0.00 65 1027.9
20230206023804 34 322 1.0 2.0 0.00 0.00 0.00 65 1027.8
20230206023304 34 322 0.0 2.0 0.00 0.00 0.00 65 1027.9
20230206021804 34 322 1.0 2.0 0.00 0.00 0.00 64 1027.9
20230206021304 34 322 0.0 3.0 0.00 0.00 0.00 64 1027.9
20230206020805 34 322 1.0 3.0 0.00 0.00 0.00 64 1027.7
20230206020304 35 322 1.0 2.0 0.00 0.00 0.00 64 1027.9
20230206014805 35 322 2.0 3.0 0.00 0.00 0.00 62 1027.9
20230206014304 36 322 1.0 2.0 0.00 0.00 0.00 60 1028.0
20230206013805 36 322 0.0 2.0 0.00 0.00 0.00 60 1028.0
20230206013305 36 322 1.0 2.0 0.00 0.00 0.00 59 1028.1
20230206011304 37 322 2.0 3.0 0.00 0.00 0.00 56 1027.9
20230206010805 38 342 1.0 2.0 0.00 0.00 0.00 55 1027.5
20230206003804 41 32 1.0 2.0 0.00 0.00 0.00 49 1027.4
20230206001804 43 32 2.0 3.0 0.00 0.00 0.00 45 1027.2
20230206001304 43 29 1.0 3.0 0.00 0.00 0.00 45 1027.3
20230206000803 44 29 3.0 3.0 0.00 0.00 0.00 44 1027.1
20230206000303 44 251 0.0 3.0 0.00 0.00 0.00 43 1027.2
20230205234804 45 240 1.0 8.0 0.00 0.00 0.00 43 1027.0
20230205234304 46 54 3.0 8.0 0.00 0.00 0.00 42 1026.7
20230205233804 46 275 2.0 8.0 0.00 0.00 0.00 43 1027.2
20230205231804 46 28 2.0 3.0 0.00 0.00 0.00 42 1027.5
20230205231304 46 346 2.0 3.0 0.00 0.00 0.00 42 1027.5
20230205230804 46 44 2.0 3.0 0.00 0.00 0.00 42 1027.5
20230205230304 45 355 2.0 3.0 0.00 0.00 0.00 42 1027.6
20230205224305 46 5 3.0 5.0 0.00 0.00 0.00 42 1027.8
20230205223804 46 16 3.0 3.0 0.00 0.00 0.00 43 1027.8
20230205220303 47 37 3.0 6.0 0.00 0.00 0.00 43 1028.0
20230205214805 47 342 2.0 5.0 0.00 0.00 0.00 45 1028.6
20230205213804 45 355 2.0 6.0 0.00 0.00 0.00 43 1028.6
20230205213304 45 8 3.0 5.0 0.00 0.00 0.00 45 1028.4
20230205211804 46 8 2.0 5.0 0.00 0.00 0.00 42 1029.0
20230205211304 47 12 3.0 5.0 0.00 0.00 0.00 42 1028.8
20230205210804 48 0 2.0 6.0 0.00 0.00 0.00 42 1029.0
20230205204804 49 34 2.0 6.0 0.00 0.00 0.00 42 1029.2
20230205204304 49 2 3.0 8.0 0.00 0.00 0.00 44 1029.5
20230205203804 49 321 2.0 10.0 0.00 0.00 0.00 42 1029.5
20230205203304 50 12 5.0 10.0 0.00 0.00 0.00 42 1029.8
20230205201804 50 347 2.0 5.0 0.00 0.00 0.00 38 1030.1
20230205200805 50 37 2.0 3.0 0.00 0.00 0.00 36 1030.5
20230205200304 49 256 1.0 3.0 0.00 0.00 0.00 35 1030.6
20230205194804 48 20 2.0 3.0 0.00 0.00 0.00 36 1031.1
20230205194304 47 19 2.0 3.0 0.00 0.00 0.00 40 1031.2
20230205193804 47 56 1.0 5.0 0.00 0.00 0.00 40 1031.5
20230205193305 47 53 2.0 5.0 0.00 0.00 0.00 41 1031.5
20230205191804 46 5 1.0 3.0 0.00 0.00 0.00 39 1032.0
20230205191304 46 0 1.0 3.0 0.00 0.00 0.00 40 1032.2
20230205190803 46 310 1.0 3.0 0.00 0.00 0.00 43 1032.4
20230205190305 45 57 2.0 3.0 0.00 0.00 0.00 42 1032.5
20230205184304 45 33 2.0 5.0 0.00 0.00 0.00 45 1033.1
20230205183804 44 355 2.0 5.0 0.00 0.00 0.00 47 1033.4
20230205181804 44 0 2.0 6.0 0.00 0.00 0.00 45 1033.8
20230205181304 44 51 2.0 5.0 0.00 0.00 0.00 44 1033.7
20230205180805 44 344 2.0 6.0 0.00 0.00 0.00 46 1033.8
20230205180304 44 46 3.0 6.0 0.00 0.00 0.00 45 1033.8
20230205174804 43 5 2.0 3.0 0.00 0.00 0.00 47 1034.0
20230205173804 43 301 2.0 7.0 0.00 0.00 0.00 46 1034.4
20230205173304 42 5 1.0 7.0 0.00 0.00 0.00 48 1034.3
20230205171805 42 337 2.0 3.0 0.00 0.00 0.00 50 1034.4
20230205170804 41 20 2.0 3.0 0.00 0.00 0.00 52 1034.4
20230205170304 41 18 2.0 3.0 0.00 0.00 0.00 52 1034.5
20230205164304 39 0 2.0 5.0 0.00 0.00 0.00 54 1034.6
20230205163804 39 358 2.0 5.0 0.00 0.00 0.00 54 1034.7
20230205161804 38 326 1.0 3.0 0.00 0.00 0.00 57 1034.9
20230205161304 38 321 1.0 3.0 0.00 0.00 0.00 57 1034.9
20230205160804 38 343 1.0 3.0 0.00 0.00 0.00 57 1035.0
20230205160304 38 335 2.0 3.0 0.00 0.00 0.00 59 1035.1